GFSNE_prec_precacc24_132.txt.gz
Total_Precipitation_Accumulation
0.76 0.70 0.47 0.36 0.28 0.19 0.10 0.05 0.05 0.06 0.05 0.02 0.01 0.01 0.03 0.02 0.03 0.02 0.02 0.04 0.03 0.04 0.05 0.06 0.05 0.07 0.08 0.06 0.05 0.04 0.04 0.03 0.04 0.07 0.12 0.16 0.18 0.17
1.09 1.08 0.89 0.69 0.54 0.36 0.26 0.19 0.16 0.15 0.13 0.03 0.08 0.08 0.07 0.05 0.08 0.04 0.03 0.06 0.10 0.14 0.12 0.09 0.09 0.10 0.08 0.06 0.04 0.03 0.02 0.02 0.02 0.03 0.04 0.07 0.12 0.17
1.04 1.09 0.98 0.94 0.96 0.58 0.36 0.29 0.24 0.20 0.18 0.10 0.19 0.19 0.19 0.17 0.15 0.12 0.14 0.15 0.20 0.22 0.11 0.09 0.08 0.06 0.04 0.02 0.02 0.01 0.00 0.00 0.01 0.01 0.02 0.04 0.06 0.09
0.70 0.92 0.88 0.87 0.96 0.72 0.54 0.32 0.24 0.18 0.21 0.22 0.37 0.33 0.31 0.27 0.25 0.21 0.17 0.14 0.11 0.21 0.14 0.08 0.05 0.02 0.01 0.01 0.00 0.00 0.00 0.00 0.00 0.01 0.01 0.01 0.02 0.03
0.71 0.65 0.75 0.78 0.75 0.77 0.66 0.44 0.28 0.23 0.24 0.41 0.56 0.49 0.44 0.35 0.32 0.29 0.24 0.18 0.10 0.18 0.14 0.09 0.03 0.02 0.00 0.00 0.00 0.00 0.00 0.00 0.00 0.00 0.01 0.01 0.01 0.01
0.90 0.81 0.69 0.73 0.61 0.60 0.58 0.58 0.39 0.29 0.24 0.31 0.40 0.44 0.40 0.34 0.28 0.24 0.18 0.15 0.13 0.10 0.11 0.09 0.04 0.02 0.01 0.01 0.00 0.00 0.00 0.00 0.00 0.00 0.00 0.00 0.01 0.02
0.93 0.89 0.85 0.78 0.77 0.71 0.66 0.67 0.62 0.42 0.37 0.36 0.39 0.42 0.40 0.33 0.25 0.17 0.15 0.11 0.09 0.09 0.08 0.06 0.02 0.01 0.01 0.02 0.01 0.01 0.00 0.00 0.00 0.00 0.00 0.00 0.00 0.00
0.92 0.71 0.71 0.80 0.83 0.98 0.87 0.75 0.68 0.58 0.44 0.36 0.38 0.40 0.40 0.31 0.23 0.16 0.13 0.14 0.13 0.08 0.07 0.04 0.02 0.02 0.01 0.01 0.02 0.01 0.00 0.00 0.00 0.00 0.00 0.00 0.00 0.01
1.05 1.02 0.96 1.00 0.94 0.91 1.01 0.86 0.74 0.70 0.60 0.44 0.36 0.29 0.25 0.23 0.21 0.19 0.15 0.14 0.11 0.07 0.06 0.05 0.04 0.03 0.04 0.04 0.04 0.02 0.01 0.00 0.00 0.00 0.00 0.00 0.00 0.00
0.78 0.91 1.06 1.23 1.09 0.99 1.13 1.20 1.03 0.69 0.53 0.38 0.27 0.24 0.20 0.20 0.22 0.19 0.18 0.16 0.12 0.10 0.07 0.05 0.07 0.05 0.03 0.01 0.01 0.00 0.00 0.00 0.00 0.00 0.00 0.00 0.00 0.00
0.43 0.61 0.82 0.95 1.35 1.07 0.92 1.08 1.03 0.78 0.62 0.50 0.41 0.35 0.29 0.26 0.21 0.19 0.20 0.15 0.17 0.12 0.07 0.05 0.04 0.02 0.00 0.00 0.00 0.00 0.00 0.00 0.00 0.00 0.00 0.00 0.00 0.00
0.19 0.39 0.70 0.80 1.01 0.92 0.75 0.65 0.74 0.77 0.50 0.44 0.40 0.33 0.27 0.26 0.22 0.15 0.15 0.13 0.11 0.10 0.04 0.01 0.01 0.00 0.00 0.00 0.00 0.00 0.00 0.00 0.00 0.00 0.00 0.00 0.00 0.00
0.13 0.19 0.34 0.42 0.46 0.60 0.63 0.60 0.67 0.62 0.55 0.49 0.44 0.34 0.26 0.22 0.20 0.18 0.13 0.09 0.06 0.02 0.01 0.00 0.00 0.00 0.00 0.00 0.00 0.00 0.00 0.00 0.00 0.00 0.00 0.00 0.00 0.00
0.31 0.35 0.40 0.36 0.32 0.39 0.48 0.56 0.59 0.49 0.42 0.42 0.40 0.36 0.30 0.23 0.16 0.10 0.06 0.03 0.01 0.00 0.00 0.00 0.00 0.00 0.00 0.00 0.00 0.00 0.00 0.00 0.00 0.00 0.00 0.00 0.00 0.00
0.38 0.42 0.39 0.31 0.30 0.32 0.33 0.31 0.30 0.27 0.24 0.23 0.23 0.19 0.13 0.08 0.05 0.03 0.01 0.00 0.00 0.00 0.00 0.00 0.00 0.00 0.00 0.00 0.00 0.00 0.00 0.00 0.00 0.00 0.00 0.00 0.00 0.00
0.50 0.44 0.41 0.40 0.36 0.34 0.31 0.24 0.16 0.10 0.06 0.06 0.05 0.03 0.02 0.01 0.01 0.00 0.00 0.00 0.00 0.00 0.00 0.00 0.00 0.00 0.00 0.00 0.00 0.00 0.00 0.00 0.00 0.00 0.00 0.00 0.00 0.00
0.55 0.55 0.49 0.37 0.26 0.16 0.09 0.05 0.04 0.05 0.03 0.02 0.02 0.01 0.00 0.00 0.00 0.00 0.00 0.00 0.00 0.00 0.00 0.00 0.00 0.00 0.00 0.00 0.00 0.00 0.00 0.00 0.00 0.00 0.00 0.00 0.00 0.00
0.28 0.23 0.20 0.13 0.09 0.06 0.05 0.04 0.05 0.06 0.04 0.02 0.01 0.00 0.00 0.00 0.00 0.00 0.00 0.00 0.00 0.00 0.00 0.00 0.00 0.00 0.00 0.00 0.00 0.00 0.00 0.00 0.00 0.00 0.01 0.03 0.02 0.00
0.26 0.26 0.22 0.17 0.14 0.10 0.08 0.05 0.05 0.04 0.03 0.02 0.01 0.00 0.00 0.00 0.00 0.00 0.00 0.00 0.00 0.00 0.00 0.00 0.00 0.00 0.00 0.00 0.00 0.00 0.01 0.02 0.01 0.01 0.00 0.02 0.06 0.01
0.39 0.35 0.32 0.28 0.27 0.25 0.20 0.16 0.11 0.07 0.05 0.03 0.01 0.01 0.00 0.00 0.00 0.00 0.00 0.00 0.00 0.00 0.00 0.00 0.00 0.00 0.01 0.02 0.03 0.00 0.01 0.06 0.07 0.05 0.01 0.01 0.02 0.00
0.39 0.37 0.35 0.31 0.26 0.22 0.18 0.13 0.08 0.05 0.03 0.01 0.00 0.00 0.00 0.00 0.00 0.00 0.00 0.00 0.00 0.00 0.00 0.00 0.00 0.00 0.00 0.00 0.01 0.00 0.00 0.02 0.09 0.15 0.12 0.09 0.02 0.01
0.60 0.45 0.34 0.27 0.22 0.15 0.09 0.06 0.04 0.02 0.01 0.00 0.00 0.00 0.00 0.00 0.00 0.00 0.00 0.00 0.00 0.00 0.00 0.00 0.00 0.00 0.00 0.01 0.01 0.01 0.01 0.01 0.01 0.02 0.11 0.16 0.11 0.10
0.37 0.30 0.22 0.14 0.09 0.06 0.04 0.02 0.01 0.00 0.00 0.00 0.00 0.00 0.00 0.00 0.00 0.00 0.00 0.00 0.00 0.00 0.00 0.00 0.00 0.00 0.00 0.01 0.03 0.04 0.04 0.04 0.04 0.05 0.08 0.05 0.04 0.06

GFSNE_prec_precacc24_138.txt.gz
Total_Precipitation_Accumulation
0.47 0.42 0.30 0.27 0.22 0.16 0.11 0.09 0.09 0.17 0.16 0.08 0.04 0.01 0.03 0.02 0.03 0.02 0.02 0.04 0.03 0.03 0.03 0.02 0.01 0.02 0.03 0.04 0.04 0.04 0.03 0.02 0.01 0.01 0.01 0.01 0.00 0.00
0.69 0.69 0.59 0.52 0.47 0.35 0.31 0.29 0.20 0.18 0.21 0.15 0.15 0.12 0.08 0.05 0.08 0.04 0.02 0.04 0.02 0.01 0.01 0.03 0.06 0.08 0.08 0.06 0.04 0.03 0.02 0.01 0.01 0.01 0.00 0.00 0.00 0.00
0.63 0.77 0.79 0.82 0.94 0.67 0.53 0.53 0.45 0.39 0.45 0.31 0.32 0.33 0.30 0.21 0.15 0.11 0.09 0.06 0.09 0.13 0.07 0.06 0.09 0.10 0.11 0.09 0.08 0.06 0.04 0.01 0.00 0.00 0.00 0.00 0.00 0.00
0.51 0.72 0.70 0.79 1.09 1.06 0.89 0.69 0.66 0.61 0.70 0.47 0.50 0.51 0.48 0.36 0.24 0.16 0.12 0.09 0.07 0.17 0.11 0.10 0.11 0.11 0.13 0.12 0.09 0.06 0.03 0.01 0.00 0.00 0.00 0.00 0.00 0.00
0.55 0.56 0.70 0.78 0.80 0.95 0.93 0.69 0.51 0.59 0.65 0.52 0.57 0.56 0.54 0.44 0.32 0.24 0.19 0.16 0.12 0.21 0.16 0.17 0.16 0.15 0.13 0.10 0.08 0.05 0.03 0.01 0.00 0.00 0.00 0.00 0.00 0.00
0.89 0.82 0.71 0.74 0.63 0.69 0.88 0.89 0.65 0.70 0.62 0.44 0.47 0.51 0.46 0.43 0.37 0.26 0.23 0.21 0.20 0.18 0.21 0.20 0.16 0.13 0.09 0.07 0.05 0.04 0.01 0.01 0.00 0.00 0.00 0.00 0.00 0.00
0.93 0.88 0.85 0.79 0.79 0.79 0.79 0.91 1.07 0.76 0.53 0.51 0.49 0.49 0.49 0.41 0.36 0.27 0.24 0.23 0.20 0.19 0.21 0.21 0.17 0.15 0.16 0.14 0.08 0.05 0.02 0.01 0.00 0.00 0.00 0.00 0.00 0.00
0.92 0.71 0.70 0.79 0.83 0.97 0.92 0.89 0.81 0.68 0.53 0.45 0.42 0.39 0.42 0.41 0.43 0.43 0.39 0.35 0.31 0.19 0.17 0.15 0.11 0.12 0.12 0.09 0.08 0.05 0.02 0.01 0.00 0.00 0.00 0.00 0.00 0.00
1.04 1.00 0.94 0.96 0.91 0.89 0.98 0.92 0.94 0.83 0.62 0.43 0.35 0.31 0.36 0.37 0.45 0.55 0.45 0.36 0.28 0.23 0.25 0.25 0.16 0.14 0.12 0.10 0.10 0.05 0.02 0.00 0.00 0.00 0.00 0.00 0.00 0.00
0.78 0.87 1.01 1.18 1.03 0.95 1.16 1.27 1.05 0.81 0.70 0.58 0.46 0.41 0.38 0.46 0.58 0.58 0.59 0.61 0.59 0.47 0.29 0.22 0.19 0.16 0.10 0.05 0.07 0.03 0.01 0.00 0.00 0.00 0.00 0.00 0.00 0.00
0.58 0.62 0.78 0.89 1.21 0.98 0.93 1.14 1.13 1.00 0.95 0.87 0.74 0.77 0.81 0.83 0.80 0.78 0.77 0.63 0.62 0.46 0.32 0.27 0.22 0.16 0.12 0.06 0.05 0.04 0.02 0.01 0.00 0.00 0.00 0.00 0.00 0.00
0.22 0.32 0.56 0.67 0.87 0.86 0.77 0.75 0.88 0.97 0.67 0.66 0.76 0.85 0.83 0.88 0.92 0.78 0.59 0.53 0.48 0.44 0.29 0.24 0.22 0.15 0.14 0.08 0.06 0.04 0.01 0.00 0.00 0.00 0.00 0.00 0.00 0.00
0.08 0.08 0.15 0.26 0.38 0.56 0.62 0.62 0.75 0.79 0.84 0.80 0.80 0.77 0.74 0.71 0.69 0.78 0.76 0.60 0.45 0.31 0.20 0.19 0.18 0.12 0.08 0.05 0.05 0.02 0.00 0.00 0.00 0.00 0.00 0.00 0.00 0.00
0.13 0.08 0.13 0.12 0.15 0.27 0.41 0.57 0.68 0.63 0.64 0.76 0.84 0.86 0.77 0.71 0.66 0.57 0.53 0.46 0.42 0.33 0.22 0.16 0.14 0.09 0.06 0.04 0.02 0.00 0.00 0.00 0.00 0.00 0.00 0.00 0.00 0.00
0.23 0.28 0.23 0.18 0.17 0.21 0.26 0.29 0.35 0.40 0.47 0.56 0.65 0.66 0.64 0.61 0.56 0.50 0.44 0.37 0.31 0.29 0.21 0.14 0.10 0.07 0.02 0.00 0.00 0.00 0.00 0.00 0.00 0.00 0.00 0.00 0.00 0.00
0.45 0.35 0.28 0.28 0.26 0.26 0.25 0.20 0.15 0.16 0.18 0.26 0.35 0.38 0.35 0.36 0.38 0.35 0.30 0.29 0.24 0.20 0.13 0.10 0.07 0.04 0.02 0.00 0.00 0.00 0.00 0.00 0.00 0.00 0.00 0.00 0.00 0.00
0.38 0.38 0.33 0.24 0.17 0.12 0.06 0.04 0.05 0.10 0.10 0.10 0.13 0.16 0.17 0.19 0.20 0.19 0.17 0.15 0.13 0.10 0.06 0.03 0.02 0.01 0.00 0.00 0.00 0.00 0.00 0.00 0.00 0.00 0.00 0.00 0.00 0.00
0.32 0.25 0.21 0.13 0.08 0.06 0.05 0.05 0.06 0.08 0.05 0.03 0.03 0.04 0.06 0.06 0.06 0.06 0.06 0.05 0.03 0.02 0.01 0.00 0.00 0.00 0.00 0.00 0.00 0.00 0.00 0.00 0.00 0.00 0.00 0.02 0.01 0.00
0.33 0.33 0.28 0.20 0.16 0.11 0.08 0.06 0.06 0.05 0.04 0.03 0.03 0.03 0.03 0.03 0.02 0.01 0.00 0.00 0.00 0.00 0.00 0.00 0.00 0.00 0.00 0.00 0.00 0.00 0.00 0.00 0.00 0.00 0.00 0.02 0.04 0.01
0.55 0.49 0.44 0.34 0.31 0.27 0.23 0.19 0.15 0.11 0.08 0.06 0.06 0.05 0.04 0.02 0.01 0.01 0.00 0.00 0.00 0.00 0.00 0.00 0.00 0.00 0.00 0.01 0.01 0.00 0.00 0.02 0.02 0.02 0.01 0.01 0.01 0.00
0.69 0.69 0.66 0.54 0.46 0.38 0.31 0.25 0.19 0.16 0.12 0.08 0.06 0.04 0.02 0.02 0.02 0.01 0.01 0.00 0.00 0.00 0.00 0.00 0.00 0.00 0.00 0.00 0.01 0.00 0.00 0.00 0.03 0.05 0.06 0.05 0.01 0.00
1.13 0.97 0.85 0.77 0.68 0.60 0.52 0.42 0.32 0.24 0.18 0.13 0.09 0.06 0.03 0.02 0.01 0.01 0.01 0.00 0.00 0.00 0.00 0.00 0.00 0.00 0.00 0.00 0.00 0.00 0.00 0.00 0.00 0.00 0.04 0.07 0.05 0.06
0.97 0.90 0.82 0.69 0.60 0.51 0.42 0.36 0.28 0.23 0.16 0.12 0.09 0.06 0.04 0.03 0.02 0.01 0.01 0.01 0.00 0.00 0.00 0.00 0.00 0.00 0.00 0.00 0.00 0.00 0.00 0.00 0.00 0.00 0.01 0.00 0.00 0.01

GFSNE_prec_precacc24_141.txt.gz
Total_Precipitation_Accumulation
0.49 0.45 0.33 0.33 0.27 0.18 0.11 0.08 0.09 0.17 0.16 0.08 0.04 0.02 0.02 0.03 0.04 0.01 0.01 0.01 0.02 0.03 0.03 0.02 0.01 0.01 0.01 0.02 0.02 0.03 0.02 0.02 0.01 0.01 0.00 0.00 0.00 0.00
0.66 0.65 0.53 0.44 0.43 0.32 0.27 0.24 0.16 0.16 0.19 0.15 0.14 0.10 0.09 0.07 0.10 0.06 0.02 0.03 0.01 0.01 0.01 0.01 0.03 0.04 0.04 0.04 0.03 0.02 0.01 0.00 0.00 0.00 0.00 0.00 0.00 0.00
0.58 0.63 0.62 0.67 0.75 0.54 0.42 0.43 0.38 0.33 0.41 0.31 0.28 0.31 0.33 0.28 0.23 0.15 0.09 0.04 0.06 0.07 0.05 0.05 0.07 0.10 0.10 0.08 0.07 0.06 0.04 0.02 0.01 0.01 0.00 0.00 0.00 0.00
0.43 0.62 0.56 0.68 0.94 0.91 0.75 0.60 0.59 0.55 0.65 0.53 0.49 0.53 0.57 0.48 0.38 0.26 0.13 0.07 0.04 0.15 0.10 0.10 0.11 0.11 0.13 0.13 0.10 0.07 0.05 0.03 0.02 0.01 0.00 0.00 0.00 0.00
0.36 0.44 0.60 0.71 0.75 0.89 0.87 0.64 0.46 0.55 0.66 0.54 0.52 0.52 0.57 0.54 0.49 0.42 0.28 0.16 0.11 0.20 0.17 0.19 0.17 0.16 0.14 0.12 0.09 0.07 0.06 0.05 0.03 0.01 0.00 0.00 0.00 0.00
0.61 0.64 0.62 0.72 0.62 0.66 0.87 0.86 0.63 0.68 0.64 0.46 0.48 0.51 0.47 0.48 0.51 0.44 0.40 0.32 0.21 0.18 0.22 0.23 0.20 0.17 0.14 0.10 0.07 0.06 0.04 0.03 0.02 0.01 0.00 0.00 0.00 0.00
0.85 0.83 0.77 0.72 0.78 0.73 0.73 0.87 1.05 0.77 0.57 0.51 0.50 0.50 0.52 0.47 0.46 0.44 0.43 0.36 0.30 0.26 0.23 0.23 0.20 0.18 0.19 0.16 0.13 0.10 0.06 0.05 0.03 0.02 0.00 0.00 0.00 0.00
0.88 0.69 0.68 0.74 0.77 0.92 0.89 0.87 0.81 0.69 0.54 0.46 0.42 0.38 0.42 0.43 0.52 0.60 0.58 0.56 0.53 0.35 0.29 0.26 0.18 0.17 0.15 0.12 0.14 0.11 0.08 0.07 0.04 0.02 0.01 0.00 0.00 0.00
1.04 1.00 0.93 0.95 0.91 0.88 0.98 0.93 0.95 0.84 0.61 0.42 0.32 0.30 0.37 0.42 0.55 0.78 0.67 0.53 0.42 0.34 0.43 0.50 0.31 0.22 0.16 0.16 0.17 0.12 0.10 0.07 0.03 0.02 0.01 0.00 0.00 0.00
0.85 1.09 1.30 1.39 1.06 0.95 1.16 1.27 1.05 0.81 0.70 0.58 0.45 0.41 0.38 0.52 0.74 0.78 0.87 0.95 0.89 0.74 0.58 0.49 0.33 0.26 0.21 0.15 0.20 0.14 0.09 0.05 0.03 0.01 0.00 0.00 0.00 0.00
0.61 0.75 0.94 1.17 1.36 0.99 0.93 1.15 1.13 1.00 0.98 0.90 0.75 0.77 0.82 0.85 0.93 1.03 1.09 0.97 0.94 0.76 0.52 0.39 0.36 0.30 0.27 0.19 0.19 0.18 0.10 0.06 0.03 0.01 0.00 0.00 0.00 0.00
0.22 0.33 0.61 0.70 0.93 0.89 0.78 0.76 0.88 0.97 0.67 0.67 0.77 0.85 0.83 0.90 1.02 0.88 0.82 0.82 0.77 0.71 0.49 0.38 0.38 0.34 0.36 0.26 0.22 0.19 0.13 0.07 0.03 0.01 0.00 0.00 0.00 0.00
0.08 0.07 0.12 0.27 0.40 0.56 0.62 0.62 0.74 0.77 0.80 0.76 0.78 0.79 0.79 0.75 0.76 0.91 0.93 0.86 0.67 0.52 0.33 0.33 0.37 0.32 0.27 0.21 0.20 0.16 0.10 0.05 0.02 0.00 0.00 0.00 0.00 0.00
0.15 0.17 0.15 0.14 0.16 0.27 0.39 0.55 0.64 0.59 0.60 0.73 0.82 0.86 0.80 0.75 0.69 0.65 0.66 0.65 0.61 0.60 0.51 0.43 0.37 0.30 0.26 0.22 0.17 0.14 0.07 0.03 0.01 0.00 0.00 0.00 0.00 0.00
0.16 0.28 0.36 0.35 0.27 0.23 0.23 0.25 0.30 0.34 0.42 0.51 0.62 0.65 0.65 0.64 0.62 0.63 0.61 0.54 0.49 0.54 0.51 0.43 0.32 0.31 0.24 0.16 0.11 0.08 0.05 0.02 0.00 0.00 0.00 0.00 0.00 0.00
0.33 0.27 0.25 0.25 0.30 0.36 0.24 0.13 0.10 0.14 0.18 0.25 0.35 0.39 0.37 0.39 0.45 0.47 0.45 0.47 0.44 0.47 0.42 0.36 0.32 0.29 0.24 0.16 0.08 0.06 0.03 0.01 0.00 0.00 0.00 0.00 0.00 0.00
0.25 0.25 0.26 0.22 0.17 0.12 0.06 0.03 0.04 0.10 0.10 0.10 0.13 0.16 0.19 0.22 0.26 0.30 0.28 0.27 0.28 0.30 0.29 0.30 0.28 0.20 0.14 0.10 0.06 0.03 0.01 0.00 0.00 0.00 0.00 0.00 0.00 0.00
0.25 0.21 0.22 0.20 0.17 0.14 0.09 0.06 0.06 0.08 0.05 0.03 0.04 0.05 0.07 0.09 0.12 0.19 0.23 0.22 0.22 0.22 0.21 0.19 0.14 0.08 0.05 0.02 0.01 0.01 0.00 0.00 0.00 0.00 0.00 0.01 0.01 0.00
0.33 0.33 0.30 0.25 0.25 0.20 0.14 0.08 0.07 0.05 0.04 0.04 0.04 0.04 0.04 0.07 0.08 0.09 0.10 0.09 0.09 0.08 0.07 0.05 0.03 0.01 0.00 0.00 0.00 0.00 0.00 0.00 0.00 0.00 0.00 0.01 0.03 0.01
0.56 0.51 0.48 0.43 0.41 0.38 0.31 0.22 0.16 0.12 0.08 0.06 0.07 0.08 0.08 0.07 0.06 0.06 0.05 0.04 0.02 0.01 0.01 0.00 0.00 0.00 0.00 0.01 0.01 0.00 0.00 0.01 0.01 0.02 0.01 0.01 0.01 0.00
0.72 0.75 0.75 0.67 0.60 0.52 0.42 0.31 0.21 0.18 0.13 0.10 0.09 0.07 0.06 0.05 0.05 0.04 0.02 0.01 0.00 0.00 0.00 0.00 0.00 0.00 0.00 0.00 0.00 0.00 0.00 0.00 0.01 0.01 0.01 0.03 0.01 0.00
1.19 1.06 0.99 0.96 0.89 0.80 0.72 0.58 0.44 0.34 0.24 0.17 0.14 0.09 0.06 0.04 0.03 0.03 0.02 0.02 0.01 0.01 0.01 0.00 0.00 0.00 0.00 0.00 0.00 0.00 0.00 0.00 0.00 0.00 0.00 0.02 0.02 0.04
1.05 0.99 0.95 0.86 0.81 0.74 0.66 0.60 0.51 0.44 0.31 0.23 0.18 0.13 0.09 0.07 0.05 0.03 0.02 0.02 0.02 0.01 0.01 0.01 0.00 0.00 0.00 0.00 0.00 0.00 0.00 0.00 0.00 0.00 0.01 0.00 0.00 0.00

GFSNE_prec_precacc24_147.txt.gz
Total_Precipitation_Accumulation
0.48 0.47 0.37 0.37 0.32 0.24 0.22 0.20 0.25 0.24 0.19 0.15 0.04 0.02 0.02 0.03 0.05 0.04 0.02 0.01 0.00 0.00 0.00 0.01 0.00 0.01 0.02 0.02 0.02 0.03 0.03 0.03 0.02 0.00 0.00 0.00 0.00 0.00
0.71 0.71 0.57 0.48 0.47 0.36 0.37 0.34 0.25 0.27 0.27 0.18 0.10 0.06 0.06 0.04 0.04 0.03 0.01 0.02 0.00 0.00 0.00 0.01 0.02 0.03 0.03 0.03 0.02 0.02 0.02 0.02 0.01 0.00 0.00 0.00 0.00 0.00
0.74 0.76 0.69 0.72 0.79 0.58 0.48 0.51 0.41 0.37 0.43 0.36 0.21 0.21 0.23 0.18 0.12 0.08 0.05 0.03 0.02 0.04 0.04 0.05 0.07 0.10 0.10 0.08 0.07 0.06 0.05 0.03 0.02 0.01 0.00 0.00 0.00 0.00
0.52 0.76 0.65 0.76 1.00 0.98 0.82 0.62 0.58 0.54 0.64 0.45 0.32 0.33 0.45 0.42 0.28 0.17 0.10 0.06 0.04 0.11 0.10 0.10 0.11 0.11 0.13 0.13 0.11 0.08 0.06 0.06 0.05 0.03 0.02 0.02 0.01 0.02
0.34 0.47 0.58 0.76 0.84 0.97 0.93 0.68 0.51 0.55 0.61 0.36 0.25 0.27 0.36 0.44 0.43 0.41 0.34 0.24 0.16 0.24 0.26 0.29 0.25 0.19 0.15 0.13 0.10 0.08 0.07 0.08 0.08 0.09 0.07 0.04 0.03 0.03
0.28 0.34 0.42 0.66 0.61 0.64 0.83 0.84 0.63 0.67 0.58 0.34 0.31 0.33 0.36 0.41 0.46 0.40 0.43 0.43 0.36 0.32 0.37 0.35 0.32 0.26 0.19 0.14 0.10 0.08 0.06 0.06 0.05 0.05 0.04 0.03 0.02 0.03
0.24 0.25 0.29 0.46 0.60 0.66 0.65 0.76 0.95 0.67 0.47 0.45 0.40 0.38 0.43 0.41 0.41 0.42 0.46 0.47 0.48 0.48 0.47 0.46 0.43 0.40 0.33 0.26 0.20 0.15 0.10 0.08 0.07 0.06 0.04 0.04 0.04 0.04
0.31 0.29 0.35 0.44 0.46 0.69 0.79 0.80 0.71 0.61 0.51 0.41 0.33 0.29 0.34 0.39 0.50 0.60 0.63 0.67 0.73 0.55 0.51 0.58 0.51 0.48 0.44 0.36 0.36 0.22 0.16 0.14 0.11 0.09 0.06 0.05 0.05 0.04
0.41 0.50 0.69 0.77 0.67 0.67 0.88 1.02 1.20 1.02 0.62 0.39 0.30 0.30 0.39 0.43 0.56 0.78 0.71 0.62 0.55 0.46 0.63 0.86 0.69 0.62 0.53 0.52 0.57 0.43 0.33 0.25 0.18 0.15 0.12 0.09 0.07 0.05
0.48 0.69 0.99 1.21 1.04 0.89 1.09 1.27 1.11 0.95 0.84 0.66 0.48 0.42 0.39 0.53 0.74 0.79 0.90 1.05 1.05 0.93 0.84 0.82 0.65 0.61 0.63 0.63 0.73 0.57 0.47 0.37 0.29 0.22 0.18 0.15 0.11 0.09
0.46 0.55 0.73 1.03 1.46 1.29 1.15 1.35 1.40 1.24 1.23 1.22 0.93 0.80 0.82 0.86 0.93 1.03 1.09 0.98 0.98 0.83 0.66 0.57 0.58 0.57 0.67 0.67 0.67 0.64 0.54 0.43 0.36 0.33 0.26 0.19 0.15 0.14
0.15 0.24 0.50 0.65 0.94 1.00 0.90 0.85 0.99 1.14 0.98 0.97 0.98 1.03 0.86 0.90 1.02 0.87 0.81 0.81 0.79 0.79 0.60 0.52 0.55 0.52 0.70 0.67 0.59 0.56 0.50 0.46 0.41 0.37 0.30 0.23 0.17 0.13
0.07 0.04 0.09 0.29 0.44 0.68 0.78 0.70 0.78 0.80 0.83 0.86 0.94 0.84 0.80 0.76 0.75 0.90 0.92 0.87 0.69 0.56 0.40 0.46 0.53 0.53 0.53 0.51 0.49 0.49 0.46 0.48 0.50 0.45 0.37 0.29 0.21 0.13
0.14 0.16 0.14 0.17 0.18 0.33 0.50 0.67 0.76 0.66 0.61 0.74 0.85 0.86 0.82 0.77 0.70 0.67 0.69 0.70 0.65 0.67 0.63 0.62 0.53 0.45 0.49 0.52 0.48 0.51 0.51 0.51 0.48 0.42 0.34 0.27 0.21 0.13
0.12 0.22 0.33 0.35 0.27 0.22 0.28 0.37 0.45 0.43 0.49 0.58 0.64 0.69 0.72 0.72 0.67 0.67 0.66 0.58 0.55 0.63 0.66 0.59 0.46 0.49 0.50 0.47 0.42 0.44 0.53 0.55 0.45 0.36 0.29 0.21 0.15 0.09
0.22 0.16 0.14 0.15 0.23 0.31 0.32 0.27 0.20 0.25 0.41 0.54 0.62 0.60 0.51 0.52 0.54 0.51 0.50 0.52 0.55 0.62 0.62 0.60 0.54 0.51 0.57 0.53 0.42 0.46 0.42 0.38 0.34 0.26 0.19 0.14 0.09 0.04
0.15 0.13 0.13 0.11 0.11 0.15 0.15 0.14 0.15 0.23 0.23 0.23 0.32 0.43 0.50 0.50 0.48 0.42 0.35 0.33 0.38 0.43 0.46 0.56 0.60 0.54 0.48 0.43 0.40 0.34 0.31 0.26 0.22 0.18 0.12 0.08 0.04 0.02
0.18 0.15 0.18 0.19 0.20 0.17 0.18 0.21 0.20 0.19 0.12 0.12 0.14 0.16 0.20 0.26 0.31 0.37 0.37 0.33 0.32 0.36 0.39 0.42 0.39 0.34 0.32 0.35 0.28 0.24 0.23 0.18 0.16 0.11 0.08 0.06 0.04 0.01
0.27 0.30 0.30 0.26 0.27 0.26 0.23 0.19 0.18 0.20 0.21 0.19 0.16 0.15 0.15 0.16 0.21 0.20 0.24 0.21 0.20 0.19 0.20 0.22 0.21 0.16 0.15 0.15 0.20 0.17 0.14 0.12 0.12 0.10 0.06 0.04 0.02 0.00
0.54 0.51 0.49 0.44 0.43 0.43 0.38 0.33 0.30 0.25 0.20 0.19 0.25 0.28 0.25 0.21 0.18 0.16 0.14 0.11 0.09 0.08 0.09 0.09 0.07 0.06 0.03 0.03 0.06 0.09 0.06 0.04 0.04 0.04 0.02 0.01 0.00 0.00
0.74 0.77 0.77 0.69 0.63 0.56 0.50 0.43 0.37 0.34 0.30 0.25 0.24 0.21 0.21 0.22 0.21 0.16 0.13 0.11 0.07 0.04 0.04 0.05 0.05 0.02 0.01 0.01 0.03 0.06 0.04 0.01 0.01 0.01 0.00 0.00 0.00 0.00
1.22 1.10 1.02 0.99 0.94 0.88 0.82 0.72 0.63 0.58 0.49 0.41 0.36 0.31 0.27 0.22 0.19 0.18 0.15 0.14 0.10 0.05 0.02 0.03 0.01 0.01 0.02 0.02 0.03 0.02 0.02 0.01 0.00 0.00 0.00 0.00 0.00 0.02
1.11 1.06 1.01 0.92 0.88 0.83 0.78 0.76 0.73 0.71 0.62 0.55 0.49 0.44 0.38 0.34 0.27 0.20 0.16 0.10 0.06 0.04 0.02 0.02 0.01 0.01 0.01 0.02 0.02 0.02 0.01 0.01 0.00 0.00 0.00 0.00 0.00 0.00

GFSNE_prec_precacc24_150.txt.gz
Total_Precipitation_Accumulation
0.51 0.49 0.38 0.36 0.36 0.30 0.28 0.31 0.43 0.61 0.57 0.21 0.08 0.03 0.02 0.03 0.05 0.04 0.02 0.01 0.00 0.00 0.00 0.00 0.00 0.01 0.02 0.02 0.02 0.02 0.03 0.03 0.02 0.01 0.01 0.01 0.00 0.00
0.59 0.67 0.55 0.47 0.49 0.41 0.42 0.41 0.35 0.41 0.38 0.33 0.27 0.16 0.07 0.04 0.04 0.03 0.01 0.02 0.00 0.00 0.00 0.01 0.02 0.03 0.03 0.03 0.02 0.02 0.02 0.02 0.02 0.02 0.01 0.00 0.00 0.00
0.52 0.62 0.66 0.77 0.84 0.65 0.55 0.56 0.46 0.47 0.49 0.45 0.40 0.45 0.33 0.21 0.12 0.09 0.05 0.02 0.01 0.02 0.03 0.04 0.06 0.09 0.10 0.08 0.07 0.06 0.05 0.03 0.03 0.02 0.01 0.00 0.00 0.00
0.39 0.60 0.54 0.78 1.05 1.05 0.90 0.68 0.63 0.58 0.70 0.48 0.44 0.55 0.76 0.67 0.36 0.20 0.10 0.06 0.04 0.08 0.08 0.09 0.11 0.11 0.13 0.13 0.11 0.08 0.06 0.06 0.05 0.04 0.04 0.03 0.02 0.02
0.22 0.38 0.51 0.72 0.86 1.01 1.02 0.74 0.56 0.61 0.70 0.40 0.31 0.35 0.46 0.57 0.51 0.48 0.37 0.23 0.15 0.22 0.25 0.28 0.25 0.21 0.17 0.13 0.10 0.08 0.07 0.08 0.08 0.10 0.09 0.08 0.07 0.05
0.16 0.23 0.36 0.62 0.61 0.70 0.91 0.96 0.80 0.89 0.80 0.49 0.41 0.41 0.39 0.46 0.50 0.44 0.45 0.45 0.37 0.31 0.36 0.34 0.32 0.28 0.22 0.17 0.14 0.11 0.08 0.07 0.07 0.06 0.05 0.07 0.12 0.16
0.15 0.13 0.19 0.36 0.56 0.70 0.74 0.84 1.02 0.76 0.73 0.90 0.89 0.59 0.48 0.44 0.46 0.47 0.48 0.49 0.49 0.48 0.47 0.47 0.43 0.41 0.37 0.31 0.26 0.21 0.15 0.12 0.10 0.09 0.09 0.08 0.08 0.08
0.15 0.18 0.24 0.31 0.33 0.61 0.75 0.79 0.75 0.62 0.46 0.40 0.38 0.38 0.37 0.39 0.53 0.63 0.65 0.67 0.71 0.54 0.51 0.57 0.50 0.47 0.45 0.42 0.52 0.35 0.23 0.23 0.20 0.16 0.12 0.11 0.11 0.12
0.17 0.25 0.49 0.53 0.47 0.48 0.70 0.84 1.05 1.00 0.62 0.38 0.29 0.27 0.35 0.42 0.57 0.85 0.76 0.66 0.58 0.45 0.63 0.86 0.69 0.62 0.52 0.56 0.70 0.58 0.49 0.41 0.36 0.31 0.24 0.17 0.12 0.10
0.20 0.38 0.65 0.85 0.70 0.62 0.79 0.94 0.86 0.81 0.79 0.70 0.59 0.48 0.40 0.54 0.77 0.85 1.00 1.15 1.07 0.91 0.82 0.81 0.64 0.61 0.62 0.63 0.78 0.64 0.64 0.65 0.60 0.44 0.36 0.32 0.26 0.21
0.29 0.30 0.44 0.74 1.12 1.01 0.90 1.10 1.23 1.12 1.15 1.24 1.08 0.96 1.00 1.09 1.09 1.09 1.16 1.00 0.97 0.81 0.65 0.56 0.57 0.57 0.67 0.67 0.68 0.68 0.61 0.61 0.64 0.70 0.59 0.46 0.37 0.35
0.12 0.16 0.35 0.45 0.74 0.82 0.75 0.73 0.88 1.05 0.94 0.95 1.01 1.32 1.42 1.39 1.31 1.07 0.96 0.85 0.79 0.78 0.59 0.52 0.55 0.53 0.71 0.67 0.59 0.60 0.57 0.59 0.62 0.63 0.60 0.53 0.43 0.34
0.07 0.03 0.06 0.23 0.37 0.62 0.74 0.67 0.76 0.78 0.83 0.87 0.95 0.89 0.88 1.00 1.04 1.09 1.07 0.96 0.70 0.56 0.40 0.46 0.54 0.53 0.53 0.51 0.50 0.50 0.47 0.53 0.61 0.61 0.59 0.55 0.48 0.39
0.14 0.15 0.13 0.16 0.16 0.31 0.48 0.66 0.75 0.66 0.61 0.74 0.86 0.88 0.83 0.83 0.79 0.76 0.78 0.83 0.73 0.69 0.64 0.63 0.53 0.45 0.50 0.53 0.50 0.55 0.55 0.56 0.55 0.54 0.53 0.53 0.50 0.41
0.12 0.21 0.32 0.35 0.26 0.21 0.27 0.36 0.45 0.43 0.49 0.58 0.64 0.68 0.72 0.76 0.80 0.85 0.87 0.81 0.77 0.77 0.72 0.61 0.46 0.50 0.52 0.49 0.43 0.46 0.57 0.61 0.52 0.46 0.43 0.39 0.34 0.29
0.21 0.16 0.14 0.14 0.22 0.30 0.31 0.26 0.20 0.25 0.40 0.54 0.63 0.61 0.55 0.60 0.69 0.72 0.73 0.73 0.77 0.81 0.70 0.62 0.56 0.52 0.58 0.54 0.43 0.49 0.46 0.43 0.41 0.36 0.31 0.29 0.23 0.17
0.14 0.12 0.12 0.11 0.11 0.14 0.14 0.13 0.14 0.22 0.22 0.23 0.32 0.45 0.54 0.58 0.56 0.55 0.55 0.57 0.60 0.58 0.57 0.63 0.64 0.57 0.51 0.45 0.43 0.36 0.33 0.31 0.30 0.29 0.24 0.20 0.15 0.11
0.16 0.12 0.14 0.15 0.16 0.15 0.16 0.20 0.20 0.19 0.12 0.13 0.15 0.17 0.23 0.31 0.40 0.52 0.53 0.49 0.50 0.55 0.56 0.55 0.45 0.38 0.36 0.39 0.30 0.26 0.26 0.21 0.22 0.18 0.15 0.14 0.13 0.10
0.17 0.18 0.20 0.20 0.24 0.24 0.23 0.19 0.18 0.20 0.21 0.19 0.17 0.16 0.16 0.19 0.28 0.27 0.33 0.37 0.41 0.39 0.35 0.34 0.31 0.21 0.18 0.16 0.25 0.20 0.15 0.16 0.17 0.18 0.14 0.11 0.09 0.08
0.39 0.41 0.43 0.42 0.42 0.43 0.38 0.34 0.30 0.25 0.20 0.20 0.25 0.30 0.29 0.27 0.25 0.22 0.21 0.22 0.23 0.24 0.25 0.23 0.17 0.12 0.05 0.04 0.07 0.15 0.08 0.06 0.07 0.08 0.07 0.06 0.05 0.02
0.65 0.74 0.78 0.69 0.64 0.57 0.50 0.44 0.37 0.35 0.31 0.26 0.24 0.23 0.24 0.27 0.31 0.31 0.31 0.30 0.25 0.23 0.23 0.21 0.18 0.09 0.03 0.02 0.06 0.12 0.12 0.05 0.02 0.01 0.01 0.03 0.03 0.02
1.21 1.10 1.03 1.01 0.95 0.89 0.83 0.73 0.64 0.59 0.50 0.42 0.37 0.33 0.32 0.29 0.27 0.29 0.34 0.39 0.39 0.30 0.21 0.18 0.12 0.07 0.10 0.07 0.04 0.04 0.08 0.08 0.05 0.02 0.01 0.01 0.01 0.02
1.11 1.07 1.02 0.94 0.89 0.85 0.80 0.78 0.74 0.73 0.64 0.56 0.51 0.46 0.40 0.39 0.37 0.32 0.29 0.24 0.20 0.19 0.18 0.17 0.15 0.13 0.10 0.05 0.04 0.05 0.05 0.05 0.04 0.02 0.01 0.00 0.00 0.00

GFSNE_prec_precacc24_153.txt.gz
Total_Precipitation_Accumulation
0.46 0.42 0.48 0.45 0.43 0.38 0.38 0.40 0.50 0.65 0.78 0.53 0.26 0.16 0.10 0.09 0.05 0.04 0.02 0.01 0.00 0.00 0.00 0.00 0.00 0.01 0.02 0.02 0.02 0.02 0.03 0.03 0.02 0.01 0.01 0.01 0.02 0.02
0.30 0.40 0.49 0.44 0.51 0.45 0.49 0.48 0.42 0.44 0.39 0.39 0.34 0.22 0.17 0.10 0.07 0.04 0.01 0.03 0.00 0.00 0.00 0.00 0.01 0.02 0.02 0.02 0.02 0.02 0.02 0.02 0.02 0.02 0.01 0.01 0.00 0.00
0.35 0.41 0.54 0.72 0.76 0.69 0.61 0.60 0.50 0.53 0.52 0.48 0.48 0.56 0.49 0.31 0.16 0.12 0.07 0.03 0.01 0.01 0.01 0.02 0.05 0.08 0.10 0.08 0.07 0.06 0.05 0.03 0.03 0.02 0.01 0.01 0.01 0.00
0.24 0.36 0.39 0.68 0.85 0.99 0.99 0.83 0.75 0.68 0.77 0.50 0.52 0.67 0.87 0.88 0.57 0.33 0.15 0.08 0.06 0.07 0.07 0.08 0.10 0.11 0.13 0.13 0.11 0.08 0.06 0.06 0.05 0.04 0.04 0.03 0.02 0.03
0.19 0.23 0.27 0.56 0.73 0.89 0.97 0.77 0.66 0.69 0.78 0.47 0.35 0.42 0.52 0.67 0.66 0.62 0.48 0.25 0.15 0.20 0.24 0.27 0.25 0.21 0.17 0.13 0.10 0.08 0.08 0.08 0.08 0.10 0.09 0.08 0.08 0.07
0.15 0.17 0.21 0.38 0.47 0.60 0.85 0.94 0.81 0.94 0.91 0.61 0.54 0.52 0.46 0.49 0.56 0.64 0.74 0.63 0.44 0.35 0.36 0.33 0.32 0.28 0.22 0.18 0.15 0.12 0.09 0.07 0.07 0.06 0.05 0.08 0.13 0.19
0.15 0.11 0.12 0.24 0.37 0.55 0.63 0.75 0.99 0.82 0.88 1.18 1.23 0.96 0.82 0.78 0.67 0.56 0.51 0.59 0.68 0.59 0.49 0.47 0.43 0.41 0.37 0.31 0.28 0.24 0.19 0.16 0.13 0.12 0.11 0.11 0.10 0.10
0.14 0.15 0.14 0.19 0.17 0.37 0.63 0.72 0.72 0.65 0.55 0.49 0.44 0.45 0.51 0.54 0.73 0.91 0.86 0.76 0.79 0.64 0.63 0.63 0.55 0.47 0.45 0.42 0.54 0.38 0.28 0.27 0.24 0.20 0.17 0.17 0.17 0.19
0.13 0.11 0.21 0.32 0.32 0.31 0.56 0.73 0.96 0.96 0.64 0.45 0.38 0.30 0.35 0.43 0.62 0.89 0.81 0.74 0.71 0.61 0.86 1.12 0.80 0.62 0.52 0.57 0.72 0.58 0.50 0.44 0.43 0.40 0.34 0.29 0.24 0.23
0.13 0.27 0.38 0.48 0.49 0.45 0.60 0.64 0.57 0.62 0.63 0.59 0.52 0.47 0.41 0.53 0.83 0.94 1.04 1.22 1.17 1.09 1.12 1.15 0.81 0.65 0.63 0.63 0.80 0.65 0.64 0.66 0.64 0.56 0.54 0.54 0.50 0.43
0.26 0.24 0.26 0.47 0.78 0.71 0.63 0.73 0.83 0.76 0.87 1.00 0.89 0.83 0.97 1.10 1.09 1.10 1.21 1.14 1.08 0.87 0.70 0.63 0.60 0.58 0.67 0.67 0.68 0.68 0.61 0.61 0.65 0.74 0.73 0.70 0.72 0.79
0.12 0.13 0.21 0.18 0.41 0.46 0.40 0.41 0.56 0.73 0.71 0.76 0.87 1.24 1.39 1.40 1.38 1.11 1.00 0.92 0.92 0.94 0.70 0.58 0.58 0.53 0.71 0.67 0.59 0.60 0.57 0.59 0.62 0.65 0.64 0.64 0.66 0.60
0.07 0.03 0.05 0.15 0.18 0.35 0.47 0.42 0.48 0.55 0.66 0.75 0.88 0.85 0.86 1.00 1.06 1.09 1.08 1.05 0.84 0.67 0.48 0.58 0.62 0.55 0.54 0.51 0.50 0.50 0.47 0.54 0.61 0.62 0.61 0.59 0.56 0.51
0.14 0.15 0.13 0.15 0.11 0.23 0.39 0.56 0.66 0.60 0.56 0.70 0.84 0.87 0.82 0.82 0.80 0.76 0.79 0.84 0.77 0.77 0.75 0.74 0.62 0.51 0.52 0.54 0.50 0.55 0.55 0.56 0.55 0.55 0.55 0.58 0.58 0.52
0.11 0.20 0.31 0.33 0.24 0.18 0.25 0.35 0.44 0.43 0.49 0.57 0.63 0.68 0.71 0.75 0.81 0.89 0.96 0.90 0.90 0.99 1.04 0.92 0.69 0.64 0.61 0.51 0.44 0.46 0.59 0.62 0.53 0.47 0.44 0.42 0.39 0.37
0.19 0.14 0.12 0.13 0.21 0.28 0.29 0.26 0.20 0.25 0.40 0.52 0.61 0.61 0.55 0.60 0.70 0.74 0.77 0.78 0.85 0.98 0.94 0.87 0.82 0.75 0.73 0.63 0.48 0.51 0.47 0.43 0.42 0.37 0.33 0.34 0.30 0.25
0.13 0.11 0.12 0.11 0.10 0.14 0.14 0.13 0.13 0.20 0.21 0.22 0.31 0.44 0.54 0.58 0.56 0.57 0.63 0.68 0.70 0.67 0.71 0.85 0.87 0.72 0.64 0.58 0.52 0.42 0.35 0.31 0.31 0.30 0.27 0.25 0.20 0.16
0.16 0.11 0.13 0.15 0.15 0.14 0.14 0.19 0.18 0.17 0.11 0.12 0.14 0.17 0.23 0.31 0.40 0.53 0.55 0.52 0.54 0.67 0.74 0.75 0.67 0.58 0.53 0.52 0.39 0.32 0.31 0.24 0.24 0.21 0.17 0.16 0.18 0.16
0.14 0.13 0.14 0.13 0.16 0.17 0.18 0.17 0.17 0.19 0.20 0.19 0.17 0.16 0.16 0.19 0.30 0.28 0.35 0.40 0.46 0.44 0.44 0.45 0.44 0.38 0.38 0.36 0.43 0.30 0.19 0.18 0.19 0.22 0.17 0.12 0.10 0.11
0.24 0.24 0.27 0.26 0.29 0.32 0.31 0.29 0.27 0.24 0.20 0.20 0.25 0.30 0.30 0.27 0.25 0.22 0.22 0.23 0.27 0.30 0.32 0.32 0.27 0.23 0.17 0.15 0.18 0.28 0.16 0.12 0.10 0.11 0.10 0.09 0.07 0.06
0.45 0.53 0.59 0.56 0.55 0.51 0.47 0.42 0.37 0.35 0.31 0.26 0.25 0.23 0.25 0.27 0.32 0.32 0.32 0.35 0.31 0.29 0.29 0.31 0.31 0.23 0.16 0.15 0.22 0.30 0.29 0.13 0.04 0.02 0.02 0.05 0.06 0.06
1.02 0.96 0.92 0.94 0.91 0.87 0.82 0.73 0.65 0.59 0.51 0.43 0.38 0.33 0.33 0.30 0.28 0.30 0.35 0.43 0.46 0.39 0.35 0.36 0.29 0.22 0.25 0.24 0.23 0.19 0.25 0.25 0.16 0.08 0.03 0.02 0.03 0.03
1.03 1.01 0.99 0.92 0.88 0.84 0.80 0.79 0.75 0.73 0.65 0.56 0.52 0.47 0.42 0.41 0.39 0.34 0.31 0.27 0.24 0.25 0.26 0.32 0.35 0.34 0.32 0.25 0.22 0.23 0.19 0.17 0.14 0.10 0.08 0.01 0.00 0.00

GFSNE_prec_precacc24_159.txt.gz
Total_Precipitation_Accumulation
0.63 0.56 0.49 0.41 0.47 0.53 0.54 0.50 0.55 0.60 0.75 0.57 0.35 0.24 0.21 0.20 0.14 0.19 0.16 0.12 0.12 0.06 0.02 0.01 0.01 0.02 0.03 0.01 0.01 0.01 0.02 0.02 0.02 0.01 0.01 0.01 0.02 0.03
0.35 0.40 0.34 0.27 0.29 0.28 0.36 0.39 0.38 0.39 0.34 0.35 0.37 0.26 0.23 0.20 0.17 0.15 0.08 0.14 0.13 0.09 0.05 0.02 0.01 0.01 0.03 0.04 0.03 0.01 0.02 0.02 0.02 0.02 0.01 0.01 0.00 0.01
0.41 0.38 0.36 0.41 0.33 0.32 0.33 0.37 0.37 0.44 0.42 0.43 0.47 0.56 0.51 0.32 0.19 0.17 0.16 0.12 0.07 0.07 0.05 0.03 0.01 0.01 0.03 0.06 0.09 0.07 0.05 0.04 0.03 0.02 0.01 0.01 0.01 0.01
0.30 0.37 0.31 0.42 0.38 0.35 0.43 0.48 0.58 0.57 0.68 0.48 0.51 0.67 0.90 0.89 0.58 0.36 0.19 0.11 0.09 0.09 0.09 0.09 0.05 0.02 0.03 0.05 0.10 0.08 0.06 0.06 0.05 0.04 0.04 0.03 0.02 0.03
0.25 0.29 0.22 0.37 0.39 0.37 0.46 0.49 0.53 0.59 0.78 0.54 0.37 0.41 0.52 0.71 0.68 0.60 0.45 0.22 0.12 0.16 0.18 0.19 0.18 0.12 0.09 0.09 0.10 0.08 0.07 0.08 0.08 0.10 0.09 0.08 0.08 0.07
0.24 0.24 0.24 0.30 0.29 0.28 0.32 0.36 0.43 0.67 0.86 0.68 0.64 0.55 0.45 0.49 0.58 0.63 0.69 0.54 0.35 0.25 0.30 0.26 0.27 0.25 0.21 0.17 0.16 0.13 0.09 0.08 0.07 0.06 0.05 0.08 0.14 0.19
0.36 0.23 0.19 0.32 0.38 0.36 0.30 0.23 0.31 0.45 0.73 1.10 1.19 0.90 0.80 0.82 0.72 0.58 0.51 0.54 0.63 0.58 0.42 0.44 0.43 0.41 0.36 0.31 0.28 0.25 0.20 0.18 0.16 0.15 0.14 0.13 0.13 0.12
0.44 0.32 0.24 0.23 0.19 0.26 0.32 0.37 0.36 0.33 0.34 0.38 0.41 0.41 0.42 0.40 0.61 0.94 1.05 0.81 0.72 0.62 0.74 0.82 0.78 0.73 0.65 0.55 0.60 0.42 0.29 0.28 0.27 0.24 0.22 0.22 0.22 0.24
0.43 0.33 0.32 0.31 0.22 0.12 0.20 0.35 0.58 0.62 0.36 0.27 0.29 0.24 0.26 0.32 0.44 0.69 0.66 0.65 0.68 0.54 0.79 1.11 1.08 1.11 0.97 0.98 1.13 0.89 0.63 0.49 0.47 0.45 0.42 0.39 0.39 0.39
0.49 0.46 0.49 0.43 0.33 0.19 0.12 0.14 0.16 0.26 0.32 0.28 0.29 0.30 0.27 0.35 0.56 0.76 0.94 1.19 1.17 1.07 1.21 1.31 1.00 0.98 1.00 0.94 1.08 0.96 0.97 0.87 0.76 0.66 0.66 0.61 0.58 0.60
0.36 0.40 0.31 0.41 0.53 0.46 0.32 0.29 0.34 0.33 0.45 0.59 0.54 0.44 0.54 0.68 0.74 0.82 0.95 0.91 0.86 0.71 0.64 0.69 0.79 0.90 1.03 1.04 0.94 0.89 0.84 0.89 0.94 0.96 0.93 0.82 0.77 0.92
0.12 0.14 0.22 0.16 0.24 0.21 0.15 0.11 0.15 0.22 0.37 0.40 0.42 0.76 0.91 0.92 0.92 0.75 0.74 0.69 0.71 0.76 0.60 0.51 0.52 0.59 0.93 0.92 0.81 0.76 0.70 0.73 0.74 0.80 0.79 0.77 0.74 0.68
0.06 0.03 0.06 0.14 0.11 0.16 0.19 0.09 0.07 0.08 0.15 0.23 0.33 0.35 0.41 0.60 0.68 0.70 0.76 0.81 0.66 0.56 0.42 0.54 0.59 0.58 0.60 0.55 0.52 0.54 0.52 0.61 0.69 0.68 0.67 0.65 0.62 0.58
0.14 0.15 0.12 0.13 0.08 0.12 0.15 0.18 0.16 0.11 0.04 0.06 0.15 0.24 0.31 0.39 0.44 0.47 0.55 0.68 0.69 0.71 0.69 0.72 0.62 0.53 0.57 0.59 0.54 0.58 0.59 0.60 0.59 0.60 0.63 0.69 0.69 0.59
0.09 0.17 0.29 0.31 0.22 0.15 0.15 0.18 0.21 0.16 0.15 0.14 0.15 0.22 0.32 0.45 0.56 0.69 0.81 0.81 0.86 0.99 1.08 0.95 0.74 0.72 0.73 0.68 0.59 0.57 0.67 0.70 0.64 0.58 0.54 0.51 0.50 0.48
0.15 0.12 0.11 0.11 0.19 0.26 0.27 0.22 0.16 0.15 0.27 0.35 0.40 0.42 0.40 0.47 0.58 0.63 0.68 0.73 0.83 0.99 0.99 0.95 0.91 0.89 0.90 0.79 0.65 0.71 0.64 0.60 0.56 0.52 0.51 0.54 0.49 0.39
0.12 0.10 0.11 0.11 0.10 0.14 0.14 0.12 0.11 0.14 0.15 0.17 0.27 0.41 0.51 0.55 0.54 0.54 0.61 0.67 0.70 0.68 0.72 0.88 0.95 0.84 0.77 0.72 0.70 0.60 0.53 0.53 0.54 0.52 0.50 0.49 0.41 0.35
0.14 0.10 0.12 0.15 0.15 0.14 0.14 0.18 0.15 0.12 0.08 0.11 0.14 0.16 0.23 0.31 0.40 0.53 0.55 0.53 0.55 0.68 0.76 0.78 0.73 0.72 0.72 0.69 0.57 0.43 0.43 0.44 0.49 0.47 0.43 0.43 0.47 0.44
0.11 0.11 0.12 0.11 0.15 0.16 0.16 0.14 0.14 0.16 0.18 0.17 0.15 0.15 0.15 0.19 0.31 0.28 0.36 0.41 0.47 0.46 0.46 0.48 0.49 0.42 0.44 0.44 0.55 0.45 0.35 0.38 0.45 0.55 0.49 0.40 0.37 0.41
0.16 0.16 0.16 0.16 0.16 0.19 0.17 0.17 0.17 0.16 0.14 0.16 0.22 0.27 0.28 0.27 0.25 0.22 0.22 0.24 0.28 0.31 0.34 0.34 0.31 0.29 0.24 0.20 0.24 0.40 0.36 0.32 0.35 0.37 0.37 0.33 0.34 0.37
0.21 0.25 0.28 0.28 0.30 0.27 0.24 0.23 0.21 0.22 0.21 0.20 0.21 0.21 0.24 0.27 0.32 0.32 0.33 0.36 0.33 0.30 0.31 0.33 0.32 0.30 0.22 0.25 0.39 0.53 0.57 0.42 0.29 0.23 0.26 0.30 0.36 0.37
0.29 0.38 0.43 0.48 0.50 0.54 0.55 0.52 0.49 0.48 0.43 0.39 0.35 0.32 0.32 0.31 0.29 0.31 0.36 0.44 0.47 0.41 0.38 0.39 0.34 0.29 0.34 0.33 0.33 0.32 0.44 0.51 0.46 0.37 0.30 0.24 0.22 0.19
0.35 0.41 0.49 0.56 0.60 0.62 0.63 0.66 0.67 0.67 0.61 0.55 0.51 0.47 0.43 0.42 0.39 0.36 0.33 0.30 0.26 0.28 0.29 0.37 0.42 0.44 0.45 0.39 0.37 0.40 0.39 0.40 0.40 0.39 0.41 0.27 0.19 0.14

GFSNE_prec_precacc24_162.txt.gz
Total_Precipitation_Accumulation
0.60 0.54 0.48 0.42 0.49 0.58 0.62 0.60 0.70 0.86 0.97 0.68 0.47 0.30 0.23 0.23 0.20 0.25 0.23 0.17 0.16 0.10 0.06 0.02 0.01 0.02 0.02 0.01 0.01 0.01 0.02 0.02 0.02 0.01 0.01 0.01 0.02 0.03
0.33 0.40 0.34 0.28 0.32 0.30 0.39 0.43 0.42 0.41 0.36 0.45 0.46 0.28 0.23 0.19 0.17 0.16 0.09 0.16 0.14 0.10 0.08 0.05 0.02 0.01 0.02 0.03 0.03 0.02 0.02 0.03 0.02 0.02 0.01 0.01 0.00 0.01
0.37 0.39 0.36 0.43 0.37 0.36 0.34 0.34 0.26 0.31 0.21 0.26 0.36 0.46 0.41 0.28 0.18 0.17 0.16 0.12 0.07 0.07 0.06 0.05 0.02 0.01 0.01 0.01 0.03 0.05 0.07 0.07 0.06 0.02 0.01 0.01 0.01 0.01
0.28 0.36 0.32 0.46 0.43 0.40 0.46 0.40 0.33 0.27 0.29 0.22 0.38 0.50 0.72 0.78 0.56 0.37 0.19 0.12 0.10 0.09 0.10 0.11 0.07 0.03 0.02 0.02 0.02 0.04 0.07 0.11 0.12 0.07 0.04 0.03 0.02 0.03
0.27 0.29 0.26 0.44 0.49 0.42 0.45 0.41 0.43 0.40 0.48 0.42 0.31 0.33 0.38 0.55 0.60 0.59 0.45 0.23 0.12 0.15 0.18 0.19 0.18 0.13 0.08 0.06 0.04 0.05 0.07 0.10 0.13 0.13 0.09 0.08 0.08 0.07
0.39 0.35 0.32 0.42 0.43 0.33 0.36 0.35 0.39 0.51 0.62 0.60 0.58 0.46 0.29 0.30 0.42 0.57 0.67 0.53 0.35 0.24 0.29 0.24 0.25 0.24 0.21 0.18 0.17 0.13 0.11 0.10 0.10 0.09 0.06 0.08 0.14 0.19
0.61 0.46 0.39 0.46 0.54 0.47 0.36 0.27 0.29 0.39 0.66 1.00 1.08 0.79 0.66 0.70 0.59 0.50 0.47 0.52 0.60 0.55 0.40 0.41 0.39 0.34 0.28 0.25 0.29 0.27 0.21 0.19 0.18 0.18 0.16 0.13 0.13 0.12
0.64 0.61 0.52 0.41 0.31 0.35 0.40 0.45 0.40 0.34 0.35 0.35 0.37 0.37 0.36 0.37 0.53 0.83 0.97 0.76 0.65 0.57 0.72 0.81 0.73 0.66 0.57 0.49 0.59 0.47 0.36 0.31 0.29 0.27 0.25 0.23 0.22 0.24
0.55 0.45 0.50 0.57 0.41 0.22 0.30 0.43 0.62 0.68 0.44 0.33 0.31 0.21 0.21 0.26 0.34 0.53 0.55 0.59 0.63 0.48 0.72 1.02 1.05 1.09 0.92 0.97 1.13 0.93 0.73 0.63 0.55 0.47 0.43 0.40 0.39 0.40
0.57 0.61 0.62 0.57 0.52 0.37 0.24 0.27 0.24 0.31 0.38 0.29 0.28 0.24 0.19 0.22 0.38 0.53 0.72 0.95 0.92 0.86 1.09 1.21 0.92 0.91 0.95 0.92 1.06 0.98 1.03 0.94 0.85 0.76 0.72 0.70 0.66 0.65
0.20 0.44 0.50 0.58 0.64 0.57 0.43 0.41 0.44 0.40 0.40 0.51 0.43 0.26 0.31 0.41 0.40 0.43 0.56 0.62 0.61 0.54 0.50 0.58 0.68 0.80 0.94 0.99 0.91 0.87 0.85 0.93 1.00 1.05 1.04 1.00 1.01 1.17
0.03 0.10 0.26 0.32 0.37 0.30 0.19 0.13 0.18 0.22 0.34 0.34 0.31 0.54 0.66 0.62 0.56 0.40 0.45 0.46 0.51 0.57 0.45 0.39 0.39 0.49 0.82 0.85 0.77 0.77 0.74 0.77 0.80 0.87 0.88 0.89 0.94 0.90
0.03 0.02 0.07 0.17 0.21 0.27 0.26 0.12 0.08 0.06 0.08 0.15 0.22 0.17 0.18 0.34 0.42 0.38 0.37 0.48 0.44 0.38 0.32 0.43 0.47 0.49 0.54 0.50 0.49 0.58 0.60 0.70 0.80 0.77 0.75 0.77 0.79 0.78
0.07 0.14 0.12 0.12 0.09 0.14 0.21 0.24 0.19 0.12 0.03 0.04 0.09 0.10 0.15 0.18 0.19 0.21 0.27 0.40 0.39 0.47 0.56 0.61 0.51 0.44 0.51 0.56 0.53 0.59 0.61 0.63 0.63 0.64 0.67 0.75 0.80 0.74
0.02 0.11 0.26 0.30 0.21 0.14 0.15 0.19 0.23 0.17 0.14 0.12 0.07 0.07 0.10 0.16 0.26 0.40 0.52 0.54 0.62 0.78 0.92 0.83 0.65 0.65 0.71 0.68 0.59 0.57 0.68 0.71 0.66 0.60 0.56 0.53 0.53 0.53
0.03 0.06 0.09 0.10 0.18 0.26 0.27 0.23 0.16 0.16 0.26 0.31 0.29 0.24 0.20 0.24 0.32 0.39 0.47 0.50 0.62 0.81 0.87 0.88 0.86 0.87 0.90 0.80 0.65 0.72 0.64 0.60 0.57 0.52 0.51 0.54 0.51 0.43
0.04 0.05 0.09 0.10 0.09 0.13 0.14 0.12 0.12 0.14 0.14 0.14 0.20 0.29 0.37 0.39 0.36 0.38 0.46 0.54 0.59 0.59 0.67 0.85 0.94 0.84 0.78 0.73 0.71 0.60 0.54 0.54 0.54 0.53 0.50 0.49 0.43 0.38
0.03 0.04 0.07 0.12 0.15 0.13 0.14 0.18 0.15 0.12 0.08 0.11 0.12 0.14 0.18 0.25 0.34 0.47 0.50 0.49 0.52 0.66 0.75 0.77 0.73 0.72 0.72 0.70 0.58 0.43 0.44 0.44 0.49 0.47 0.44 0.43 0.47 0.45
0.03 0.04 0.06 0.09 0.14 0.16 0.16 0.14 0.14 0.16 0.18 0.16 0.15 0.14 0.14 0.17 0.29 0.28 0.36 0.41 0.47 0.46 0.46 0.48 0.49 0.42 0.44 0.44 0.55 0.45 0.35 0.38 0.45 0.55 0.50 0.42 0.38 0.43
0.04 0.05 0.08 0.12 0.15 0.18 0.17 0.16 0.16 0.15 0.13 0.15 0.20 0.25 0.27 0.26 0.25 0.22 0.22 0.24 0.28 0.31 0.34 0.34 0.31 0.29 0.24 0.20 0.24 0.40 0.37 0.33 0.35 0.37 0.39 0.35 0.38 0.45
0.07 0.10 0.14 0.17 0.20 0.21 0.21 0.20 0.20 0.21 0.20 0.19 0.19 0.20 0.23 0.27 0.31 0.31 0.32 0.36 0.33 0.31 0.31 0.33 0.32 0.30 0.23 0.25 0.40 0.53 0.58 0.44 0.30 0.23 0.27 0.32 0.39 0.44
0.11 0.16 0.20 0.26 0.29 0.31 0.32 0.32 0.34 0.35 0.34 0.31 0.29 0.29 0.30 0.29 0.29 0.31 0.36 0.45 0.47 0.41 0.38 0.39 0.34 0.30 0.35 0.34 0.33 0.32 0.46 0.53 0.48 0.40 0.33 0.26 0.25 0.22
0.16 0.18 0.22 0.26 0.31 0.34 0.39 0.44 0.47 0.51 0.49 0.45 0.45 0.42 0.39 0.40 0.38 0.35 0.33 0.30 0.27 0.29 0.30 0.37 0.43 0.46 0.47 0.41 0.40 0.42 0.41 0.42 0.43 0.41 0.44 0.29 0.20 0.15

GFSNE_prec_precacc24_165.txt.gz
Total_Precipitation_Accumulation
0.57 0.50 0.44 0.36 0.44 0.58 0.65 0.68 0.88 1.05 1.09 0.73 0.50 0.34 0.25 0.25 0.25 0.35 0.32 0.24 0.23 0.18 0.18 0.12 0.03 0.03 0.03 0.01 0.01 0.01 0.01 0.02 0.02 0.01 0.01 0.01 0.02 0.03
0.32 0.37 0.30 0.26 0.29 0.30 0.42 0.47 0.47 0.45 0.40 0.45 0.47 0.31 0.26 0.20 0.16 0.17 0.15 0.22 0.20 0.18 0.15 0.15 0.11 0.04 0.03 0.04 0.03 0.02 0.02 0.03 0.02 0.02 0.01 0.01 0.00 0.01
0.35 0.38 0.33 0.36 0.35 0.33 0.36 0.40 0.31 0.34 0.22 0.27 0.35 0.43 0.33 0.18 0.11 0.15 0.16 0.14 0.11 0.12 0.12 0.12 0.14 0.09 0.06 0.02 0.04 0.06 0.07 0.06 0.05 0.04 0.02 0.01 0.01 0.01
0.28 0.35 0.31 0.42 0.39 0.40 0.51 0.49 0.43 0.31 0.30 0.14 0.32 0.42 0.58 0.62 0.40 0.27 0.16 0.11 0.11 0.10 0.11 0.13 0.10 0.05 0.04 0.03 0.02 0.03 0.06 0.10 0.11 0.10 0.09 0.07 0.04 0.03
0.29 0.31 0.25 0.40 0.45 0.42 0.53 0.52 0.55 0.55 0.54 0.38 0.28 0.28 0.30 0.41 0.41 0.37 0.33 0.21 0.12 0.15 0.16 0.18 0.18 0.13 0.08 0.06 0.04 0.04 0.04 0.06 0.11 0.16 0.15 0.15 0.14 0.09
0.41 0.39 0.33 0.42 0.44 0.40 0.42 0.50 0.63 0.65 0.77 0.63 0.57 0.43 0.24 0.20 0.24 0.37 0.47 0.40 0.33 0.24 0.27 0.21 0.22 0.23 0.20 0.17 0.17 0.14 0.10 0.11 0.10 0.10 0.13 0.16 0.20 0.24
0.61 0.54 0.56 0.68 0.67 0.64 0.53 0.45 0.47 0.72 0.78 1.04 1.08 0.77 0.62 0.63 0.48 0.32 0.28 0.38 0.50 0.49 0.38 0.38 0.36 0.33 0.29 0.28 0.27 0.28 0.28 0.25 0.20 0.19 0.18 0.19 0.20 0.18
0.59 0.65 0.63 0.65 0.59 0.60 0.63 0.71 0.64 0.56 0.50 0.44 0.42 0.39 0.36 0.36 0.48 0.67 0.78 0.56 0.44 0.42 0.62 0.71 0.66 0.61 0.54 0.48 0.55 0.43 0.35 0.34 0.37 0.35 0.29 0.26 0.28 0.31
0.49 0.46 0.58 0.73 0.63 0.45 0.57 0.67 0.83 0.86 0.54 0.40 0.37 0.28 0.23 0.26 0.30 0.38 0.40 0.48 0.54 0.41 0.56 0.78 0.90 1.01 0.88 0.92 1.06 0.87 0.67 0.64 0.70 0.65 0.51 0.43 0.43 0.45
0.52 0.46 0.43 0.45 0.65 0.61 0.43 0.48 0.44 0.49 0.44 0.34 0.36 0.37 0.25 0.20 0.29 0.40 0.54 0.74 0.72 0.63 0.87 1.01 0.80 0.83 0.87 0.87 0.99 0.90 0.96 0.91 0.86 0.88 0.98 0.88 0.72 0.69
0.16 0.32 0.38 0.36 0.57 0.71 0.61 0.58 0.61 0.53 0.45 0.65 0.57 0.38 0.50 0.55 0.38 0.26 0.36 0.36 0.38 0.34 0.33 0.47 0.57 0.70 0.84 0.90 0.79 0.83 0.86 0.91 0.98 1.07 1.07 1.12 1.21 1.30
0.02 0.06 0.18 0.29 0.33 0.37 0.29 0.28 0.33 0.37 0.51 0.42 0.50 0.72 0.77 0.77 0.61 0.38 0.26 0.18 0.23 0.30 0.25 0.26 0.24 0.31 0.62 0.69 0.62 0.63 0.64 0.73 0.80 0.90 0.95 0.97 1.07 1.16
0.01 0.01 0.04 0.13 0.18 0.28 0.30 0.15 0.13 0.13 0.15 0.23 0.25 0.27 0.30 0.39 0.46 0.30 0.19 0.21 0.21 0.17 0.20 0.30 0.29 0.29 0.35 0.35 0.35 0.43 0.51 0.66 0.80 0.82 0.82 0.89 0.97 1.02
0.02 0.02 0.02 0.05 0.05 0.12 0.21 0.26 0.22 0.13 0.04 0.06 0.11 0.10 0.16 0.19 0.17 0.14 0.14 0.20 0.20 0.20 0.27 0.36 0.28 0.24 0.32 0.38 0.38 0.46 0.54 0.61 0.64 0.68 0.76 0.88 0.93 0.88
0.01 0.00 0.02 0.02 0.02 0.03 0.10 0.19 0.26 0.20 0.17 0.13 0.08 0.08 0.11 0.13 0.19 0.27 0.34 0.38 0.45 0.53 0.62 0.54 0.43 0.42 0.50 0.53 0.49 0.49 0.64 0.70 0.66 0.61 0.58 0.57 0.60 0.62
0.00 0.00 0.00 0.01 0.02 0.05 0.18 0.22 0.17 0.19 0.31 0.35 0.31 0.24 0.19 0.22 0.25 0.28 0.32 0.32 0.43 0.54 0.59 0.62 0.61 0.62 0.67 0.65 0.58 0.66 0.61 0.59 0.57 0.52 0.52 0.56 0.54 0.47
0.00 0.00 0.01 0.00 0.02 0.08 0.12 0.12 0.12 0.14 0.16 0.17 0.23 0.30 0.36 0.36 0.30 0.27 0.35 0.43 0.43 0.38 0.43 0.58 0.68 0.65 0.64 0.64 0.65 0.58 0.53 0.54 0.54 0.53 0.50 0.49 0.43 0.39
0.01 0.01 0.02 0.03 0.04 0.06 0.10 0.16 0.14 0.11 0.09 0.12 0.13 0.15 0.18 0.23 0.29 0.34 0.34 0.32 0.34 0.46 0.55 0.58 0.59 0.64 0.67 0.68 0.58 0.43 0.44 0.44 0.49 0.47 0.44 0.43 0.47 0.46
0.02 0.02 0.03 0.03 0.04 0.07 0.10 0.12 0.13 0.16 0.18 0.16 0.14 0.13 0.13 0.14 0.23 0.20 0.27 0.32 0.38 0.38 0.39 0.43 0.46 0.41 0.43 0.44 0.55 0.45 0.35 0.38 0.45 0.55 0.50 0.42 0.38 0.43
0.03 0.04 0.05 0.04 0.04 0.08 0.09 0.13 0.16 0.14 0.13 0.14 0.19 0.23 0.23 0.22 0.20 0.17 0.17 0.21 0.26 0.30 0.33 0.34 0.31 0.29 0.25 0.20 0.24 0.40 0.37 0.33 0.35 0.37 0.39 0.35 0.39 0.47
0.04 0.04 0.06 0.05 0.06 0.07 0.10 0.15 0.17 0.18 0.18 0.18 0.17 0.17 0.20 0.24 0.29 0.29 0.31 0.35 0.33 0.31 0.31 0.32 0.32 0.30 0.23 0.26 0.40 0.53 0.58 0.44 0.30 0.23 0.27 0.32 0.40 0.44
0.06 0.07 0.06 0.07 0.08 0.11 0.13 0.17 0.22 0.25 0.28 0.27 0.25 0.26 0.28 0.28 0.28 0.30 0.35 0.44 0.47 0.41 0.37 0.39 0.34 0.30 0.36 0.35 0.34 0.33 0.46 0.54 0.49 0.41 0.33 0.26 0.25 0.22
0.09 0.10 0.10 0.10 0.10 0.12 0.16 0.20 0.25 0.30 0.34 0.35 0.36 0.36 0.34 0.36 0.35 0.33 0.32 0.29 0.26 0.28 0.29 0.36 0.43 0.46 0.47 0.42 0.41 0.44 0.42 0.44 0.44 0.43 0.47 0.31 0.20 0.15

GFSNE_prec_precacc24_168.txt.gz
Total_Precipitation_Accumulation
0.56 0.49 0.44 0.35 0.44 0.57 0.62 0.67 0.90 1.06 1.11 0.76 0.53 0.35 0.26 0.26 0.23 0.32 0.34 0.33 0.34 0.32 0.31 0.27 0.18 0.08 0.04 0.01 0.01 0.00 0.01 0.02 0.02 0.01 0.01 0.01 0.02 0.03
0.30 0.35 0.29 0.26 0.29 0.29 0.37 0.42 0.48 0.46 0.41 0.47 0.48 0.34 0.28 0.21 0.16 0.17 0.16 0.26 0.27 0.25 0.24 0.23 0.24 0.25 0.16 0.06 0.03 0.02 0.02 0.03 0.02 0.02 0.01 0.01 0.00 0.01
0.31 0.34 0.30 0.34 0.32 0.30 0.30 0.31 0.28 0.35 0.23 0.28 0.38 0.45 0.37 0.20 0.12 0.13 0.14 0.14 0.13 0.16 0.17 0.20 0.22 0.23 0.26 0.21 0.08 0.06 0.07 0.06 0.05 0.04 0.03 0.01 0.01 0.01
0.24 0.31 0.29 0.40 0.36 0.33 0.45 0.45 0.40 0.31 0.32 0.17 0.35 0.45 0.60 0.63 0.37 0.23 0.12 0.08 0.09 0.09 0.13 0.16 0.13 0.17 0.26 0.28 0.19 0.07 0.07 0.09 0.10 0.08 0.07 0.05 0.04 0.03
0.26 0.28 0.24 0.39 0.44 0.39 0.50 0.47 0.50 0.53 0.55 0.43 0.35 0.34 0.33 0.42 0.38 0.29 0.21 0.10 0.06 0.12 0.13 0.22 0.27 0.19 0.15 0.21 0.29 0.30 0.16 0.06 0.08 0.10 0.11 0.12 0.13 0.13
0.37 0.36 0.32 0.42 0.47 0.42 0.43 0.47 0.58 0.60 0.77 0.74 0.71 0.52 0.37 0.24 0.28 0.35 0.41 0.28 0.18 0.13 0.19 0.16 0.22 0.30 0.24 0.20 0.22 0.26 0.31 0.25 0.11 0.09 0.11 0.15 0.20 0.26
0.54 0.49 0.53 0.64 0.68 0.66 0.58 0.46 0.45 0.71 0.81 1.16 1.30 1.00 0.74 0.84 0.55 0.32 0.23 0.26 0.32 0.27 0.19 0.26 0.29 0.30 0.27 0.27 0.26 0.27 0.29 0.30 0.24 0.19 0.17 0.17 0.19 0.18
0.55 0.55 0.54 0.59 0.55 0.64 0.67 0.72 0.70 0.65 0.80 0.66 0.60 0.70 0.71 0.51 0.62 0.68 0.73 0.45 0.25 0.22 0.42 0.49 0.51 0.50 0.44 0.41 0.51 0.43 0.34 0.33 0.35 0.35 0.33 0.30 0.28 0.31
0.49 0.43 0.42 0.51 0.53 0.46 0.60 0.73 0.94 0.99 0.85 0.81 0.70 0.55 0.67 0.57 0.41 0.40 0.36 0.40 0.41 0.29 0.36 0.46 0.61 0.76 0.69 0.75 0.93 0.79 0.68 0.67 0.71 0.65 0.56 0.55 0.56 0.54
0.52 0.44 0.39 0.32 0.42 0.50 0.46 0.56 0.60 0.75 0.79 0.78 0.73 0.67 0.56 0.41 0.38 0.44 0.53 0.65 0.57 0.46 0.60 0.70 0.52 0.58 0.62 0.63 0.79 0.78 0.86 0.85 0.86 0.90 1.00 0.97 0.87 0.84
0.16 0.31 0.36 0.30 0.31 0.36 0.42 0.55 0.75 0.73 0.85 0.99 1.03 0.66 0.71 0.72 0.47 0.33 0.42 0.44 0.37 0.31 0.26 0.32 0.37 0.49 0.60 0.66 0.61 0.67 0.75 0.84 0.92 1.02 1.07 1.15 1.30 1.50
0.02 0.05 0.15 0.25 0.26 0.25 0.24 0.28 0.42 0.57 0.78 0.76 0.81 1.01 0.91 0.90 0.72 0.44 0.37 0.36 0.40 0.42 0.29 0.26 0.14 0.17 0.38 0.45 0.47 0.51 0.51 0.65 0.75 0.85 0.95 1.03 1.16 1.28
0.01 0.02 0.04 0.08 0.14 0.16 0.17 0.15 0.20 0.26 0.32 0.44 0.47 0.46 0.47 0.44 0.58 0.46 0.30 0.34 0.42 0.38 0.40 0.35 0.20 0.17 0.17 0.14 0.16 0.27 0.35 0.51 0.65 0.72 0.82 0.93 1.05 1.13
0.02 0.02 0.02 0.01 0.02 0.05 0.11 0.16 0.17 0.16 0.09 0.13 0.20 0.17 0.22 0.26 0.20 0.26 0.31 0.32 0.31 0.39 0.41 0.40 0.24 0.13 0.15 0.17 0.17 0.24 0.35 0.42 0.49 0.59 0.71 0.89 0.98 0.98
0.01 0.01 0.00 0.00 0.00 0.01 0.02 0.04 0.09 0.10 0.11 0.11 0.10 0.10 0.12 0.16 0.25 0.29 0.39 0.47 0.56 0.65 0.70 0.55 0.39 0.30 0.28 0.29 0.25 0.25 0.36 0.44 0.51 0.55 0.54 0.56 0.60 0.65
0.00 0.00 0.00 0.00 0.00 0.00 0.00 0.01 0.02 0.07 0.14 0.17 0.22 0.22 0.19 0.22 0.26 0.29 0.31 0.31 0.39 0.47 0.48 0.47 0.46 0.44 0.41 0.36 0.33 0.42 0.41 0.43 0.45 0.46 0.49 0.56 0.54 0.47
0.00 0.00 0.00 0.00 0.00 0.00 0.00 0.00 0.01 0.01 0.04 0.07 0.16 0.29 0.36 0.37 0.31 0.27 0.34 0.40 0.37 0.28 0.29 0.38 0.44 0.41 0.41 0.42 0.44 0.39 0.38 0.44 0.47 0.49 0.49 0.49 0.43 0.39
0.01 0.01 0.02 0.02 0.01 0.01 0.01 0.02 0.02 0.04 0.03 0.06 0.11 0.15 0.19 0.23 0.28 0.33 0.31 0.27 0.27 0.35 0.41 0.40 0.40 0.47 0.52 0.51 0.43 0.30 0.34 0.39 0.47 0.46 0.44 0.43 0.47 0.46
0.02 0.02 0.03 0.03 0.03 0.02 0.02 0.02 0.03 0.05 0.09 0.12 0.14 0.14 0.13 0.14 0.22 0.20 0.25 0.28 0.29 0.28 0.28 0.29 0.31 0.29 0.33 0.34 0.47 0.40 0.32 0.37 0.45 0.55 0.50 0.42 0.38 0.43
0.03 0.04 0.05 0.04 0.03 0.04 0.03 0.03 0.03 0.04 0.05 0.10 0.18 0.23 0.23 0.22 0.20 0.17 0.17 0.19 0.22 0.25 0.27 0.29 0.27 0.26 0.23 0.18 0.22 0.39 0.37 0.33 0.35 0.37 0.39 0.35 0.39 0.47
0.04 0.04 0.05 0.05 0.05 0.04 0.04 0.04 0.04 0.05 0.08 0.11 0.13 0.16 0.20 0.25 0.28 0.29 0.29 0.33 0.31 0.30 0.31 0.32 0.32 0.31 0.23 0.26 0.40 0.53 0.58 0.44 0.30 0.23 0.27 0.32 0.40 0.45
0.05 0.06 0.05 0.06 0.06 0.06 0.06 0.05 0.05 0.06 0.09 0.12 0.16 0.23 0.26 0.27 0.26 0.28 0.33 0.42 0.46 0.41 0.38 0.39 0.34 0.30 0.36 0.35 0.33 0.32 0.46 0.54 0.50 0.41 0.33 0.27 0.25 0.22
0.07 0.07 0.07 0.07 0.07 0.06 0.06 0.07 0.06 0.06 0.09 0.14 0.21 0.27 0.30 0.33 0.33 0.33 0.31 0.29 0.26 0.28 0.29 0.36 0.43 0.45 0.47 0.41 0.41 0.44 0.43 0.45 0.46 0.44 0.48 0.32 0.21 0.16

GFSNE_prec_precacc24_174.txt.gz
Total_Precipitation_Accumulation
0.41 0.38 0.36 0.32 0.37 0.47 0.51 0.50 0.63 0.68 0.69 0.60 0.48 0.34 0.27 0.34 0.42 0.54 0.49 0.51 0.64 0.63 0.75 1.07 0.81 0.27 0.17 0.13 0.09 0.04 0.01 0.00 0.00 0.00 0.00 0.01 0.02 0.03
0.19 0.22 0.21 0.21 0.24 0.23 0.30 0.32 0.30 0.26 0.27 0.27 0.31 0.23 0.27 0.23 0.19 0.24 0.36 0.54 0.55 0.47 0.42 0.62 0.99 0.88 0.42 0.18 0.11 0.08 0.06 0.03 0.01 0.00 0.00 0.00 0.00 0.01
0.13 0.16 0.18 0.22 0.23 0.21 0.22 0.24 0.21 0.21 0.13 0.07 0.14 0.19 0.25 0.17 0.14 0.16 0.17 0.20 0.21 0.27 0.31 0.33 0.54 0.90 0.77 0.37 0.20 0.14 0.13 0.10 0.06 0.03 0.02 0.01 0.01 0.01
0.14 0.15 0.18 0.22 0.20 0.21 0.34 0.36 0.33 0.24 0.22 0.12 0.15 0.20 0.19 0.28 0.29 0.25 0.17 0.14 0.16 0.19 0.17 0.18 0.20 0.35 0.63 0.44 0.31 0.19 0.14 0.13 0.11 0.09 0.06 0.04 0.03 0.01
0.20 0.20 0.18 0.23 0.27 0.25 0.34 0.37 0.38 0.42 0.41 0.35 0.22 0.22 0.20 0.25 0.27 0.27 0.23 0.13 0.12 0.16 0.13 0.18 0.23 0.19 0.26 0.39 0.45 0.43 0.29 0.18 0.13 0.11 0.09 0.09 0.08 0.08
0.35 0.32 0.26 0.29 0.33 0.32 0.31 0.32 0.38 0.33 0.46 0.49 0.52 0.41 0.30 0.18 0.26 0.37 0.45 0.35 0.20 0.15 0.16 0.10 0.14 0.24 0.26 0.27 0.37 0.48 0.55 0.51 0.31 0.19 0.15 0.12 0.11 0.12
0.54 0.48 0.50 0.54 0.54 0.51 0.45 0.37 0.35 0.55 0.44 0.58 0.70 0.74 0.64 0.77 0.49 0.30 0.25 0.28 0.40 0.37 0.19 0.17 0.16 0.14 0.21 0.31 0.34 0.43 0.52 0.62 0.60 0.44 0.31 0.24 0.17 0.14
0.57 0.56 0.53 0.55 0.49 0.52 0.49 0.53 0.54 0.56 0.70 0.51 0.45 0.56 0.63 0.45 0.65 0.74 0.76 0.53 0.34 0.30 0.56 0.48 0.37 0.32 0.24 0.20 0.32 0.41 0.40 0.42 0.56 0.66 0.60 0.47 0.37 0.29
0.50 0.44 0.43 0.52 0.50 0.45 0.53 0.50 0.58 0.60 0.71 0.81 0.69 0.49 0.63 0.55 0.46 0.62 0.54 0.41 0.45 0.35 0.44 0.55 0.62 0.67 0.52 0.49 0.51 0.46 0.48 0.58 0.63 0.66 0.71 0.79 0.76 0.68
0.53 0.45 0.41 0.34 0.42 0.50 0.46 0.52 0.53 0.62 0.67 0.73 0.68 0.67 0.65 0.57 0.65 0.61 0.74 0.88 0.65 0.51 0.74 0.83 0.57 0.55 0.46 0.38 0.42 0.40 0.44 0.46 0.62 0.80 0.94 0.97 0.99 0.93
0.16 0.31 0.37 0.31 0.30 0.35 0.39 0.45 0.53 0.56 0.67 0.74 0.85 0.66 0.80 0.77 0.58 0.67 0.63 0.69 0.86 0.55 0.39 0.44 0.43 0.50 0.52 0.44 0.33 0.35 0.39 0.42 0.47 0.63 0.87 1.06 1.25 1.51
0.02 0.05 0.15 0.25 0.25 0.25 0.24 0.30 0.41 0.46 0.55 0.58 0.74 0.75 0.57 0.73 0.73 0.54 0.67 0.71 0.76 1.00 0.52 0.40 0.25 0.20 0.37 0.33 0.32 0.31 0.24 0.31 0.34 0.38 0.53 0.77 1.13 1.43
0.02 0.02 0.04 0.08 0.15 0.17 0.16 0.16 0.22 0.28 0.35 0.46 0.50 0.69 0.74 0.57 0.74 0.64 0.54 0.75 0.94 0.83 0.88 0.60 0.38 0.37 0.29 0.10 0.09 0.17 0.20 0.26 0.31 0.30 0.36 0.50 0.74 1.09
0.04 0.03 0.02 0.02 0.03 0.06 0.12 0.15 0.12 0.10 0.13 0.20 0.27 0.36 0.54 0.62 0.54 0.73 0.71 0.73 0.78 0.98 0.86 0.84 0.53 0.39 0.38 0.24 0.11 0.11 0.19 0.21 0.19 0.21 0.29 0.46 0.58 0.70
0.01 0.01 0.01 0.02 0.01 0.01 0.02 0.04 0.08 0.09 0.08 0.12 0.13 0.19 0.30 0.42 0.47 0.53 0.68 0.75 0.89 0.98 1.19 1.13 0.99 0.68 0.56 0.41 0.32 0.24 0.19 0.23 0.32 0.28 0.25 0.25 0.31 0.40
0.00 0.00 0.01 0.01 0.00 0.01 0.01 0.01 0.02 0.06 0.08 0.08 0.12 0.13 0.14 0.20 0.26 0.36 0.47 0.51 0.63 0.74 0.81 1.00 1.13 1.10 0.79 0.56 0.48 0.47 0.42 0.30 0.28 0.34 0.37 0.43 0.42 0.36
0.00 0.01 0.01 0.01 0.01 0.00 0.01 0.01 0.01 0.02 0.04 0.06 0.06 0.06 0.08 0.12 0.14 0.19 0.31 0.43 0.47 0.55 0.63 0.62 0.76 0.86 0.77 0.61 0.53 0.56 0.52 0.51 0.46 0.43 0.43 0.43 0.42 0.40
0.01 0.01 0.02 0.03 0.03 0.02 0.02 0.02 0.01 0.02 0.03 0.03 0.04 0.05 0.05 0.07 0.11 0.12 0.15 0.21 0.27 0.40 0.57 0.61 0.56 0.68 0.72 0.51 0.52 0.40 0.40 0.45 0.51 0.52 0.47 0.41 0.42 0.43
0.02 0.02 0.04 0.04 0.04 0.03 0.03 0.03 0.03 0.02 0.03 0.03 0.04 0.04 0.05 0.04 0.08 0.10 0.11 0.15 0.17 0.18 0.26 0.37 0.39 0.39 0.49 0.45 0.41 0.39 0.34 0.34 0.41 0.47 0.46 0.38 0.32 0.39
0.02 0.04 0.05 0.04 0.04 0.05 0.04 0.04 0.03 0.03 0.03 0.03 0.03 0.03 0.04 0.05 0.05 0.05 0.07 0.10 0.13 0.13 0.12 0.17 0.24 0.26 0.28 0.26 0.26 0.35 0.39 0.34 0.34 0.33 0.34 0.30 0.35 0.47
0.03 0.03 0.05 0.05 0.05 0.05 0.05 0.05 0.05 0.04 0.04 0.04 0.04 0.04 0.05 0.05 0.05 0.05 0.05 0.09 0.13 0.11 0.12 0.14 0.16 0.24 0.22 0.26 0.38 0.46 0.50 0.43 0.32 0.23 0.27 0.30 0.37 0.43
0.04 0.04 0.04 0.05 0.05 0.06 0.05 0.05 0.05 0.03 0.04 0.04 0.03 0.05 0.05 0.06 0.07 0.07 0.06 0.10 0.12 0.15 0.20 0.23 0.23 0.25 0.27 0.30 0.32 0.32 0.41 0.49 0.47 0.41 0.33 0.26 0.24 0.22
0.06 0.05 0.05 0.05 0.05 0.05 0.04 0.05 0.05 0.04 0.04 0.04 0.05 0.05 0.06 0.06 0.06 0.08 0.08 0.09 0.09 0.12 0.14 0.22 0.29 0.34 0.39 0.38 0.38 0.42 0.40 0.42 0.44 0.44 0.48 0.33 0.22 0.16